FW8535 Weather Reports


time (UTC)temp
F
wind
direction
speed
knots
gust
knots
rain 1hr
in
rain 24hr
in
rain mn
in
humidity
%
barometer
mb
20260507073548 34 284 0.9 2.6 0.00 0.00 0.00 44 1011.9
20260507073052 34 284 0.9 1.7 0.00 0.00 0.00 44 1011.9
20260507072547 35 284 0.9 1.7 0.00 0.00 0.00 44 1011.8
20260507072050 35 284 0.0 2.6 0.00 0.00 0.00 44 1011.9
20260507071547 35 284 0.9 2.6 0.00 0.00 0.00 44 1011.8
20260507071046 35 284 0.0 3.5 0.00 0.00 0.00 44 1011.8
20260507070545 34 285 1.7 3.5 0.00 0.00 0.00 44 1011.8
20260507070046 34 319 0.0 1.7 0.00 0.00 0.00 44 1011.9
20260507065542 34 321 0.9 1.7 0.00 0.00 0.00 43 1011.9
20260507065042 35 321 0.0 1.7 0.00 0.00 0.00 43 1012.0
20260507064541 35 321 0.0 2.6 0.00 0.00 0.00 42 1011.9
20260507064141 35 321 0.0 2.6 0.00 0.00 0.00 41 1011.9
20260507063542 35 321 0.0 0.9 0.00 0.00 0.00 42 1012.0
20260507063043 35 321 0.0 1.7 0.00 0.00 0.00 42 1011.9
20260507062541 35 321 0.9 2.6 0.00 0.00 0.00 42 1012.0
20260507062040 35 321 0.9 2.6 0.00 0.00 0.00 42 1011.9
20260507061540 35 321 0.9 2.6 0.00 0.00 0.00 41 1011.9
20260507061045 35 19 0.0 2.6 0.00 0.00 0.00 41 1012.0
20260507060539 36 32 0.0 1.7 0.00 0.00 0.00 41 1011.7
20260507060040 36 32 0.0 3.5 0.00 0.00 0.00 41 1012.0
20260507055539 35 32 0.9 7.0 0.00 0.00 0.00 40 1011.9
20260507055039 35 28 1.7 7.0 0.00 0.00 0.00 41 1011.9
20260507054539 35 141 0.0 2.6 0.00 0.00 0.00 43 1011.8
20260507054139 35 141 0.9 2.6 0.00 0.00 0.00 42 1011.7
20260507053539 36 85 0.9 1.7 0.00 0.00 0.00 39 1011.8
20260507053039 37 80 0.0 1.7 0.00 0.00 0.00 38 1011.9
20260507052544 38 79 0.0 2.6 0.00 0.00 0.00 39 1011.9
20260507052039 38 79 0.9 2.6 0.00 0.00 0.00 39 1012.0
20260507051539 38 78 0.9 1.7 0.00 0.00 0.00 39 1012.0
20260507051038 38 78 0.0 0.0 0.00 0.00 0.00 38 1012.1
20260507050537 38 78 0.0 2.6 0.00 0.00 0.00 37 1012.1
20260507050041 39 78 0.9 3.5 0.00 0.00 0.00 37 1012.3
20260507045540 40 315 0.0 1.7 0.00 0.00 0.00 37 1012.2
20260507045036 39 315 0.9 1.7 0.00 0.00 0.00 38 1012.1
20260507044536 39 315 0.9 1.7 0.00 0.00 0.00 38 1012.3
20260507044136 38 315 0.0 1.7 0.00 0.00 0.00 38 1012.3
20260507043539 38 315 0.0 0.0 0.00 0.00 0.00 37 1012.4
20260507043053 39 315 0.0 0.0 0.00 0.00 0.00 37 1012.3
20260507042539 39 315 0.0 0.9 0.00 0.00 0.00 36 1012.3
20260507042042 39 315 0.0 1.7 0.00 0.00 0.00 37 1012.3
20260507041538 38 315 0.0 1.7 0.00 0.00 0.00 37 1012.3
20260507041037 39 315 0.0 1.7 0.00 0.00 0.00 36 1012.4
20260507040537 39 315 0.0 0.0 0.00 0.00 0.00 36 1012.4
20260507040039 39 315 0.0 0.0 0.00 0.00 0.00 36 1012.4
20260507035537 39 315 0.0 0.0 0.00 0.00 0.00 36 1012.5
20260507035036 40 315 0.0 0.0 0.00 0.00 0.00 36 1012.4
20260507034537 40 315 0.0 0.0 0.00 0.00 0.00 35 1012.6
20260507034136 40 315 0.0 0.0 0.00 0.00 0.00 35 1012.5
20260507033534 40 315 0.0 0.9 0.00 0.00 0.00 36 1012.6
20260507033034 39 315 0.0 0.9 0.00 0.00 0.00 36 1012.7
20260507032533 39 317 0.0 0.0 0.00 0.00 0.00 36 1012.5
20260507032033 39 317 0.0 0.0 0.00 0.00 0.00 36 1012.6
20260507031532 40 317 0.0 1.7 0.00 0.00 0.00 35 1012.6
20260507031032 40 317 0.0 1.7 0.00 0.00 0.00 35 1012.6
20260507030536 39 317 0.9 1.7 0.00 0.00 0.00 35 1012.6
20260507030132 39 317 0.9 1.7 0.00 0.00 0.00 35 1012.7
20260507025530 39 317 0.9 1.7 0.00 0.00 0.00 35 1012.7
20260507025032 40 317 0.9 1.7 0.00 0.00 0.00 35 1012.7
20260507024530 40 317 0.9 2.6 0.00 0.00 0.00 34 1012.6
20260507024030 42 317 1.7 2.6 0.00 0.00 0.00 33 1012.5
20260507023034 43 316 0.0 0.0 0.00 0.00 0.00 34 1012.6
20260507022531 44 311 0.0 0.0 0.00 0.00 0.00 33 1012.7
20260507022035 44 311 0.0 0.0 0.00 0.00 0.00 32 1012.7
20260507021532 45 311 0.0 0.0 0.00 0.00 0.00 31 1012.7
20260507021033 46 311 0.0 0.0 0.00 0.00 0.00 31 1012.7
20260507020530 47 311 0.0 0.0 0.00 0.00 0.00 29 1012.7
20260507020045 48 311 0.0 0.0 0.00 0.00 0.00 28 1012.7
20260507015529 49 311 0.0 0.9 0.00 0.00 0.00 27 1012.8
20260507015030 50 311 0.0 0.9 0.00 0.00 0.00 27 1012.7
20260507014533 52 311 0.0 0.9 0.00 0.00 0.00 26 1012.7
20260507014129 53 311 0.0 2.6 0.00 0.00 0.00 25 1012.8
20260507013525 53 311 0.0 2.6 0.00 0.00 0.00 25 1012.7
20260507013026 53 311 0.9 2.6 0.00 0.00 0.00 24 1012.8
20260507012524 54 310 0.0 3.5 0.00 0.00 0.00 24 1012.7
20260507012024 53 310 0.0 4.3 0.00 0.00 0.00 24 1012.7
20260507011535 53 301 1.7 4.3 0.00 0.00 0.00 24 1012.8
20260507011023 54 303 1.7 4.3 0.00 0.00 0.00 23 1012.7
20260507010523 55 322 0.0 3.5 0.00 0.00 0.00 23 1012.8
20260507010026 56 312 0.9 7.0 0.00 0.00 0.00 23 1012.8
20260507005523 56 313 1.7 7.0 0.00 0.00 0.00 22 1012.8
20260507005021 56 360 2.6 5.2 0.00 0.00 0.00 22 1012.9
20260507004521 56 13 2.6 5.2 0.00 0.00 0.00 22 1012.9
20260507004122 56 301 3.5 8.7 0.00 0.00 0.00 22 1012.9
20260507003522 56 302 3.5 8.7 0.00 0.00 0.00 22 1013.1
20260507003021 57 315 2.6 11.3 0.00 0.00 0.00 22 1012.9
20260507002522 56 277 3.5 11.3 0.00 0.00 0.00 22 1013.0
20260507002020 57 13 3.5 5.2 0.00 0.00 0.00 22 1013.0
20260507001545 57 319 3.5 7.8 0.00 0.00 0.00 22 1013.1
20260507001024 57 9 2.6 7.8 0.00 0.00 0.00 22 1013.1
20260507000519 57 279 1.7 8.7 0.00 0.00 0.00 22 1013.1
20260507000023 57 316 4.3 9.6 0.00 0.00 0.00 22 1013.2
20260506235521 57 293 2.6 12.2 0.00 0.00 0.00 23 1013.2
20260506235018 57 12 5.2 12.2 0.00 0.00 0.00 23 1013.1
20260506234518 57 284 2.6 7.8 0.00 0.00 0.00 22 1013.2
20260506234117 58 287 3.5 13.0 0.00 0.00 0.00 23 1013.3
20260506233520 58 259 2.6 13.0 0.00 0.00 0.00 23 1013.2
20260506233020 57 48 3.5 12.2 0.00 0.00 0.00 23 1013.4
20260506232519 57 19 4.3 12.2 0.00 0.00 0.00 22 1013.3
20260506232018 57 315 3.5 8.7 0.00 0.00 0.00 22 1013.4
20260506231519 57 259 3.5 8.7 0.00 0.00 0.00 22 1013.3
20260506231021 57 300 3.5 10.4 0.00 0.00 0.00 22 1013.4
20260506230520 58 319 5.2 11.3 0.00 0.00 0.00 21 1013.4
20260506230017 58 331 4.3 11.3 0.00 0.00 0.00 22 1013.3
20260506225516 58 23 3.5 7.8 0.00 0.00 0.00 20 1013.3
20260506225018 58 303 2.6 7.8 0.00 0.00 0.00 21 1013.5
20260506224516 58 333 2.6 10.4 0.00 0.00 0.00 22 1013.4
20260506224114 57 236 4.3 9.6 0.00 0.00 0.00 21 1013.6
20260506223512 57 311 5.2 9.6 0.00 0.00 0.00 21 1013.6
20260506223012 57 256 5.2 9.6 0.00 0.00 0.00 23 1013.6
20260506222516 56 226 2.6 12.2 0.00 0.00 0.00 22 1013.5
20260506222010 56 250 4.3 12.2 0.00 0.00 0.00 22 1013.7
20260506221510 57 239 5.2 15.6 0.00 0.00 0.00 22 1013.8
20260506221009 57 259 7.8 15.6 0.00 0.00 0.00 21 1013.9
20260506220508 57 258 5.2 11.3 0.00 0.00 0.00 22 1013.9
20260506220008 57 302 4.3 9.6 0.00 0.00 0.00 22 1014.0
20260506215507 56 272 2.6 9.6 0.00 0.00 0.00 22 1014.0
20260506215007 57 303 6.1 11.3 0.00 0.00 0.00 21 1014.2
20260506214507 57 313 6.1 11.3 0.00 0.00 0.00 23 1014.3
20260506214106 57 271 7.0 12.2 0.00 0.00 0.00 23 1014.4
20260506213510 57 257 7.0 12.2 0.00 0.00 0.00 22 1014.6
20260506213006 57 242 4.3 9.6 0.00 0.00 0.00 21 1014.7
20260506212506 56 294 5.2 13.0 0.00 0.00 0.00 22 1014.8
20260506212009 56 265 6.1 13.0 0.00 0.00 0.00 22 1014.8
20260506211505 56 234 2.6 10.4 0.00 0.00 0.00 22 1014.8
20260506211005 57 290 4.3 10.4 0.00 0.00 0.00 22 1015.0
20260506210508 57 296 4.3 12.2 0.00 0.00 0.00 22 1015.0
20260506210007 56 279 6.1 12.2 0.00 0.00 0.00 23 1015.2
20260506205502 56 5 4.3 9.6 0.00 0.00 0.00 23 1015.1
20260506205002 56 220 3.5 14.8 0.00 0.00 0.00 21 1015.2
20260506204501 56 237 7.8 14.8 0.00 0.00 0.00 23 1015.4
20260506204102 55 255 1.7 11.3 0.00 0.00 0.00 22 1015.4
20260506203506 55 255 1.7 11.3 0.00 0.00 0.00 22 1015.3
20260506203008 55 311 7.0 11.3 0.00 0.00 0.00 23 1015.5
20260506202504 55 257 2.6 13.0 0.00 0.00 0.00 24 1015.5
20260506202004 55 305 4.3 13.0 0.00 0.00 0.00 23 1015.8
20260506201603 55 261 3.5 10.4 0.00 0.00 0.00 23 1015.7
20260506201001 54 278 1.7 9.6 0.00 0.00 0.00 24 1015.8
20260506200501 55 320 4.3 13.0 0.00 0.00 0.00 24 1016.0
20260506200001 55 266 5.2 13.0 0.00 0.00 0.00 24 1016.1
20260506195502 55 355 3.5 11.3 0.00 0.00 0.00 25 1016.2
20260506195059 55 281 5.2 11.3 0.00 0.00 0.00 25 1016.2
20260506194601 55 319 2.6 9.6 0.00 0.00 0.00 25 1016.2
20260506194057 55 44 4.3 9.6 0.00 0.00 0.00 24 1016.4
20260506193105 53 260 7.0 11.3 0.00 0.00 0.00 25 1016.5
20260506192555 54 274 5.2 7.8 0.00 0.00 0.00 25 1016.7
20260506192054 53 225 2.6 7.8 0.00 0.00 0.00 25 1016.9
20260506191555 52 309 3.5 7.0 0.00 0.00 0.00 27 1016.9
20260506191053 51 194 0.9 8.7 0.00 0.00 0.00 25 1017.1
20260506190553 52 274 6.1 12.2 0.00 0.00 0.00 25 1017.3
20260506190054 52 279 8.7 13.9 0.00 0.00 0.00 25 1017.3
20260506185551 52 285 7.0 17.4 0.00 0.00 0.00 25 1017.4
20260506185050 53 244 5.2 15.6 0.00 0.00 0.00 25 1017.4
20260506184551 52 276 5.2 15.6 0.00 0.00 0.00 25 1017.7
20260506184049 52 289 6.1 13.0 0.00 0.00 0.00 25 1017.8
20260506183047 51 272 5.2 9.6 0.00 0.00 0.00 24 1018.1
20260506182546 51 247 2.6 7.8 0.00 0.00 0.00 24 1018.1
20260506182047 51 304 2.6 13.9 0.00 0.00 0.00 24 1018.2
20260506181553 51 234 8.7 13.9 0.00 0.00 0.00 24 1018.2
20260506181045 52 232 6.1 9.6 0.00 0.00 0.00 24 1018.4
20260506180545 51 291 4.3 11.3 0.00 0.00 0.00 25 1018.4
20260506180042 50 331 2.6 11.3 0.00 0.00 0.00 25 1018.6
20260506175541 51 323 5.2 11.3 0.00 0.00 0.00 24 1018.6
20260506175044 51 288 7.0 10.4 0.00 0.00 0.00 25 1018.7
20260506174540 50 319 2.6 10.4 0.00 0.00 0.00 25 1018.8
20260506174138 50 312 3.5 10.4 0.00 0.00 0.00 25 1018.8
20260506173041 49 283 3.5 10.4 0.00 0.00 0.00 26 1019.0
20260506172535 49 297 2.6 9.6 0.00 0.00 0.00 25 1019.0
20260506172035 50 270 6.1 11.3 0.00 0.00 0.00 25 1019.2
20260506171536 49 235 7.0 11.3 0.00 0.00 0.00 26 1019.2
20260506171035 49 21 2.6 9.6 0.00 0.00 0.00 25 1019.3
20260506170534 50 304 5.2 11.3 0.00 0.00 0.00 25 1019.5
20260506170038 49 271 5.2 10.4 0.00 0.00 0.00 26 1019.5
20260506165533 49 319 4.3 8.7 0.00 0.00 0.00 27 1019.3
20260506165032 49 348 5.2 9.6 0.00 0.00 0.00 25 1019.5
20260506164545 48 5 2.6 9.6 0.00 0.00 0.00 26 1019.6
20260506164031 49 290 4.3 9.6 0.00 0.00 0.00 25 1019.7
20260506163030 49 321 2.6 8.7 0.00 0.00 0.00 26 1019.8
20260506162528 48 302 4.3 8.7 0.00 0.00 0.00 25 1020.0
20260506162027 48 323 4.3 7.8 0.00 0.00 0.00 25 1020.0
20260506161528 48 346 2.6 10.4 0.00 0.00 0.00 26 1020.1
20260506161026 48 355 3.5 10.4 0.00 0.00 0.00 27 1020.1
20260506160525 47 283 3.5 10.4 0.00 0.00 0.00 27 1020.0
20260506160024 46 246 3.5 10.4 0.00 0.00 0.00 28 1020.2
20260506155522 46 311 2.6 7.0 0.00 0.00 0.00 29 1020.3
20260506155021 46 276 2.6 6.1 0.00 0.00 0.00 34 1020.3
20260506154520 45 241 1.7 6.1 0.00 0.00 0.00 35 1020.4
20260506154019 45 108 1.7 7.0 0.00 0.00 0.00 34 1020.5
20260506153017 44 130 1.7 7.8 0.00 0.00 0.00 36 1020.5
20260506152516 43 136 3.5 7.8 0.00 0.00 0.00 39 1020.5
20260506152014 43 134 1.7 7.8 0.00 0.00 0.00 39 1020.6
20260506151515 42 132 3.5 7.8 0.00 0.00 0.00 41 1020.8
20260506151012 42 127 4.3 7.0 0.00 0.00 0.00 43 1020.8
20260506150511 41 192 1.7 6.1 0.00 0.00 0.00 44 1020.9
20260506150009 40 133 2.6 7.0 0.00 0.00 0.00 45 1020.8
20260506145508 39 135 3.5 7.0 0.00 0.00 0.00 45 1021.0
20260506145008 39 146 3.5 6.1 0.00 0.00 0.00 45 1021.0
20260506144511 38 184 1.7 4.3 0.00 0.00 0.00 48 1021.0
20260506144006 37 163 0.9 5.2 0.00 0.00 0.00 47 1021.1
20260506143011 37 166 2.6 5.2 0.00 0.00 0.00 48 1021.2
20260506142513 36 167 1.7 5.2 0.00 0.00 0.00 49 1021.2
20260506142007 35 171 1.7 4.3 0.00 0.00 0.00 49 1021.3
20260506141521 35 173 3.5 5.2 0.00 0.00 0.00 49 1021.3
20260506141006 34 196 2.6 5.2 0.00 0.00 0.00 50 1021.2
20260506140505 34 219 2.6 4.3 0.00 0.00 0.00 51 1021.3
20260506140003 33 227 1.7 4.3 0.00 0.00 0.00 51 1021.3
20260506135503 32 229 1.7 3.5 0.00 0.00 0.00 51 1021.4
20260506135100 32 230 1.7 3.5 0.00 0.00 0.00 51 1021.3
20260506134559 32 236 1.7 4.3 0.00 0.00 0.00 52 1021.4
20260506134101 31 234 2.6 4.3 0.00 0.00 0.00 52 1021.3
20260506133107 30 235 2.6 4.3 0.00 0.00 0.00 54 1021.3
20260506132552 29 235 1.7 3.5 0.00 0.00 0.00 55 1021.3
20260506132052 29 235 1.7 4.3 0.00 0.00 0.00 55 1021.4
20260506131606 29 236 2.6 4.3 0.00 0.00 0.00 55 1021.3
20260506131051 28 236 1.7 4.3 0.00 0.00 0.00 55 1021.2
20260506130551 28 236 1.7 3.5 0.00 0.00 0.00 55 1021.3
20260506130051 28 236 2.6 3.5 0.00 0.00 0.00 56 1021.2
20260506125550 27 237 1.7 3.5 0.00 0.00 0.00 57 1021.0
20260506125050 27 237 1.7 2.6 0.00 0.00 0.00 57 1021.3
20260506124551 26 237 0.0 2.6 0.00 0.00 0.00 58 1021.2
20260506124050 26 237 1.7 2.6 0.00 0.00 0.00 58 1021.2
20260506123056 25 237 0.0 1.7 0.00 0.00 0.00 60 1021.0
20260506122554 24 237 0.0 1.7 0.00 0.00 0.00 60 1020.9
20260506122052 24 238 0.0 0.0 0.00 0.00 0.00 60 1020.9
20260506121556 24 238 0.0 0.9 0.00 0.00 0.00 59 1020.9
20260506121052 24 238 0.0 1.7 0.00 0.00 0.00 58 1020.9
20260506120550 25 238 0.0 3.5 0.00 0.00 0.00 57 1020.8
20260506120100 26 238 0.0 3.5 0.00 0.00 0.00 55 1020.8
20260506115549 27 242 0.9 6.1 0.00 0.00 0.00 53 1020.6
20260506115048 27 241 1.7 6.1 0.00 0.00 0.00 53 1020.6
20260506114548 27 320 0.9 4.3 0.00 0.00 0.00 53 1020.5
20260506114147 27 325 1.7 4.3 0.00 0.00 0.00 54 1020.4
20260506113043 26 190 0.0 1.7 0.00 0.00 0.00 56 1020.4
20260506112545 26 190 0.0 2.6 0.00 0.00 0.00 56 1020.4
20260506112041 25 190 0.0 1.7 0.00 0.00 0.00 57 1020.4
20260506111546 25 190 0.0 1.7 0.00 0.00 0.00 56 1020.5
20260506111040 25 190 0.9 4.3 0.00 0.00 0.00 56 1020.3
20260506110541 25 190 0.9 5.2 0.00 0.00 0.00 56 1020.3
20260506110043 26 190 2.6 3.5 0.00 0.00 0.00 56 1020.3
20260506105539 26 190 0.9 3.5 0.00 0.00 0.00 56 1020.3
20260506105042 25 190 1.7 3.5 0.00 0.00 0.00 57 1020.2
20260506104548 25 190 0.9 5.2 0.00 0.00 0.00 55 1020.2
20260506104036 26 190 2.6 5.2 0.00 0.00 0.00 55 1020.1
20260506103044 27 247 0.0 2.6 0.00 0.00 0.00 55 1020.2
20260506102536 26 271 0.0 1.7 0.00 0.00 0.00 55 1020.2
20260506102035 27 271 0.0 1.7 0.00 0.00 0.00 55 1020.3
20260506101535 27 271 0.9 2.6 0.00 0.00 0.00 54 1020.3
20260506101034 26 280 0.0 2.6 0.00 0.00 0.00 54 1020.3
20260506100534 26 280 0.0 1.7 0.00 0.00 0.00 55 1020.3
20260506100034 26 280 0.0 1.7 0.00 0.00 0.00 55 1020.3
20260506095534 26 280 0.0 1.7 0.00 0.00 0.00 54 1020.4
20260506095035 26 280 0.0 2.6 0.00 0.00 0.00 54 1020.3
20260506094533 26 280 0.0 2.6 0.00 0.00 0.00 55 1020.2
20260506094032 26 278 0.0 1.7 0.00 0.00 0.00 55 1020.3
20260506093036 26 279 0.0 1.7 0.00 0.00 0.00 55 1020.1
20260506092536 26 279 0.0 2.6 0.00 0.00 0.00 55 1020.1
20260506092036 26 279 0.0 2.6 0.00 0.00 0.00 55 1020.1
20260506091537 26 279 0.0 2.6 0.00 0.00 0.00 55 1020.3
20260506091034 26 279 0.0 2.6 0.00 0.00 0.00 55 1020.2
20260506090533 26 279 0.9 2.6 0.00 0.00 0.00 55 1020.1
20260506090033 26 279 0.0 2.6 0.00 0.00 0.00 55 1020.1
20260506090003 26 279 0.0 2.6 0.00 0.00 0.00 55 1020.2
20260506085532 26 279 0.0 2.6 0.00 0.00 0.00 55 1020.1
20260506085031 27 279 0.0 3.5 0.00 0.00 0.00 55 1020.1
20260506084607 27 279 0.9 3.5 0.00 0.00 0.00 55 1020.0
20260506084030 27 278 0.9 2.6 0.00 0.00 0.00 54 1020.0
20260506083026 27 278 0.9 2.6 0.00 0.00 0.00 54 1020.1
20260506082524 28 278 0.0 1.7 0.00 0.00 0.00 53 1020.1
20260506082024 28 278 0.0 1.7 0.00 0.00 0.00 54 1020.1
20260506081534 28 278 0.0 1.7 0.00 0.00 0.00 53 1020.1
20260506081022 28 278 0.0 1.7 0.00 0.00 0.00 53 1020.1
20260506080522 28 278 0.0 1.7 0.00 0.00 0.00 53 1020.1